Voltar ao catálogo

THOR ABLESTAR DEB

AtivoPO
NORAD 3592·DEBRIS·🇺🇸 United States

Lançado Jun 24, 1965 de Vandenberg Space Force Base

Loading…

Próximas Passagens (próximas 24 horas)

TLE

AtualizadoSource: Space-Track

Época: Sep 14, 2026, 08:36 UTC

1 03592U 65048F   26257.35847567  .00000189  00000-0  22575-3 0  9991
2 03592  89.8698 286.5713 0062086  59.4306 314.8799 13.62750157 32104

Acompanhe THOR ABLESTAR DEB em tempo real com AllMySat

Download on the App Store